Regional Weather Roundup
Issued by NWS

Home | Current Version | Previous Version | Text Only | Print | Product List | Glossary On
Versions: 1 2 3 4 5 6 7 8 9 10 11 12 13 14 15 16 17 18 19 20 21 22 23 24 25 26 27 28 29 30 31 32 33 34 35 36 37 38 39 40 41 42 43 44 45 46 47 48 49 50
000
ASUS43 KOAX 192202
RWRNE

WEATHER ROUNDUP FOR NEBRASKA
NATIONAL WEATHER SERVICE OMAHA NE
500 PM CDT SAT AUG 19 2017

NOTES: SATELLITE DATA IS BEING USED TO AUGMENT CLOUD COVER ABOVE
       12000 FEET.
       "FAIR" INDICATES FEW OR NO CLOUDS BELOW 12,000 FEET WITH NO
       SIGNIFICANT WEATHER AND/OR OBSTRUCTIONS TO VISIBILITY.


NEZ001>004-019>022-054>056-192300-
NEBRASKA PANHANDLE

CITY           SKY/WX    TMP DP  RH WIND       PRES   REMARKS
SCOTTSBLUFF    SUNNY     95  34  11 VRB6      29.91F HX  90
ALLIANCE       SUNNY     91  43  18 N8        29.90F
CHADRON        SUNNY     96  37  12 W15G25    29.85F HX  91
GORDON         FAIR      94  41  16 E9        29.88S HX  90
KIMBALL        SUNNY     89  38  17 N6        29.99F
SIDNEY         SUNNY     96  40  14 N10       29.95S HX  92
$$

NEZ057>060-069>072-079>082-192300-
SOUTHWEST NEBRASKA

CITY           SKY/WX    TMP DP  RH WIND       PRES   REMARKS
NORTH PLATTE   SUNNY     91  66  43 S18G28    29.84F HX  93
IMPERIAL       SUNNY     97  55  24 S13       29.87F HX  95
LEXINGTON      SUNNY     91  71  52 SE15      29.86F HX  96
MCCOOK         SUNNY     97  64  33 S17G29    29.84F HX  99
OGALLALA       CLOUDY    88  67  48 SE3       29.87F HX  91
$$

NEZ005>010-023>029-035>040-094-192300-
NORTH CENTRAL NEBRASKA

CITY           SKY/WX    TMP DP  RH WIND       PRES   REMARKS
VALENTINE      SUNNY     97  52  21 W7        29.80S HX  94
AINSWORTH      MOSUNNY   92  66  42 SW12G17   29.81F HX  95
BROKEN BOW     MOSUNNY   92  69  47 S18       29.86F HX  97
O`NEILL        SUNNY     85  69  59 SE16G23   29.84S
ORD            SUNNY     88  68  51 SE12G21   29.84F HX  91
THEDFORD       SUNNY     95  62  34 SW17G24   29.85S HX  95
$$

NEZ041-046>049-061>064-073>077-083>087-192300-
SOUTH CENTRAL NEBRASKA

CITY           SKY/WX    TMP DP  RH WIND       PRES   REMARKS
GRAND ISLAND   SUNNY     85  72  65 SE14      29.87F HX  91
AURORA         SUNNY     85  69  59 SE12      29.88F
HASTINGS       SUNNY     90  65  43 S10G20    29.88F HX  92
HEBRON         SUNNY     92  67  44 S9        29.88F HX  95
HOLDREGE       SUNNY     90  66  45 SE12      29.86F HX  92
KEARNEY        SUNNY     89  71  55 S15       29.87F HX  95
YORK           SUNNY     86  70  58 S8        29.88F HX  90
$$

NEZ011>018-030>034-042>045-192300-
NORTHEAST NEBRASKA

CITY           SKY/WX    TMP DP  RH WIND       PRES   REMARKS
NORFOLK        SUNNY     82  65  56 S16       29.86F
ALBION         SUNNY     84  71  64 SE16      29.87F
BLAIR          SUNNY     85  65  50 E7        29.90F
COLUMBUS       SUNNY     83  68  60 SE13      29.88F
FREMONT        SUNNY     83  60  44 SE12      29.90F
TEKAMAH        SUNNY     83  63  50 SE8       29.88F
WAYNE          SUNNY     80  67  64 SE14      29.88F
$$

NEZ050>053-065>068-078-088>093-192300-
SOUTHEAST NEBRASKA

CITY           SKY/WX    TMP DP  RH WIND       PRES   REMARKS
LINCOLN        SUNNY     87  65  47 SE12      29.89F
OMAHA EPPLEY   MOSUNNY   88  59  37 S12       29.89F
BEATRICE       SUNNY     95  61  32 SE7       29.88S HX  95
FALLS CITY     SUNNY     88  65  46 E12       29.89F HX  90
NEBRASKA CITY  SUNNY     86  64  46 SE8       29.92F
$$

NEZ044-045-051>053-067-192300-
OMAHA AREA

CITY           SKY/WX    TMP DP  RH WIND       PRES   REMARKS
OMAHA EPPLEY   MOSUNNY   88  59  37 S12       29.89F
BLAIR          SUNNY     85  65  50 E7        29.90F
FREMONT        SUNNY     83  60  44 SE12      29.90F
MILLARD        SUNNY     87  64  46 SE12      29.90F
OFFUTT AFB     SUNNY     87  59  37 SE10      29.90F
WAHOO          FAIR      83  65  53 SE12      29.90F
$$




USA.gov is the U.S. government's official web portal to all federal, state and local government web resources and services.